EQX822 LFMN-LROP

Flight info

Callsign EQX822
Flight time 1h 54m
Altitude 38000
Route BASIP DCT ANAKI DCT KALMO DCT BEROK/N0435F390 DCT RUXOL/N0430F380 DCT NIKOL/N0431F390 DCT SOMUN DCT VELIP DCT TOSVI
Aircraft A320/M-SDE3FGHIRWY/LB1

Departure

Time 2026-05-06 16:26
Airport Nice-Côte d'Azur Airport (LFMN)

Arrival

Time 2026-05-06 18:21
Airport Bucharest Henri Coandă International Airport (LROP)
Time Latitude Longitude Altitude Speed Heading
2026-05-06 16:06 43.66473 7.21739 22 ft 0 kts 134°
2026-05-06 16:15 43.66477 7.21734 23 ft 2 kts 134°
2026-05-06 16:15 43.66489 7.21717 25 ft 3 kts 119°
2026-05-06 16:15 43.66500 7.21697 22 ft 2 kts 131°
2026-05-06 16:15 43.66509 7.21677 25 ft 3 kts 97°
2026-05-06 16:16 43.66508 7.21653 24 ft 2 kts 60°
2026-05-06 16:16 43.66500 7.21638 24 ft 2 kts 38°
2026-05-06 16:16 43.66487 7.21624 23 ft 2 kts 24°
2026-05-06 16:16 43.66474 7.21617 27 ft 2 kts 17°
2026-05-06 16:17 43.66461 7.21612 26 ft 0 kts 32°
2026-05-06 16:17 43.66464 7.21614 26 ft 0 kts 26°
2026-05-06 16:20 43.66477 7.21627 23 ft 5 kts 38°
2026-05-06 16:20 43.66516 7.21678 25 ft 10 kts 45°
2026-05-06 16:20 43.66577 7.21763 22 ft 15 kts 45°
2026-05-06 16:21 43.66641 7.21881 22 ft 15 kts 88°
2026-05-06 16:21 43.66599 7.22017 22 ft 17 kts 76°
2026-05-06 16:21 43.66687 7.22153 22 ft 21 kts 43°
2026-05-06 16:21 43.66789 7.22299 22 ft 11 kts 49°
2026-05-06 16:22 43.66797 7.22311 22 ft 4 kts 49°
2026-05-06 16:22 43.66811 7.22363 22 ft 8 kts 86°
2026-05-06 16:22 43.66787 7.22450 21 ft 12 kts 138°
2026-05-06 16:22 43.66711 7.22543 22 ft 17 kts 137°
2026-05-06 16:23 43.66616 7.22668 22 ft 21 kts 132°
2026-05-06 16:23 43.66607 7.22682 23 ft 0 kts 132°
2026-05-06 16:24 43.66603 7.22689 22 ft 3 kts 132°
2026-05-06 16:24 43.66579 7.22723 22 ft 7 kts 134°
2026-05-06 16:25 43.66529 7.22764 23 ft 10 kts 168°
2026-05-06 16:25 43.66479 7.22740 24 ft 0 kts 219°
2026-05-06 16:25 43.66475 7.22735 25 ft 4 kts 221°
2026-05-06 16:26 43.66302 7.22495 27 ft 78 kts 224°
2026-05-06 16:26 43.65742 7.21739 32 ft 143 kts 223°
2026-05-06 16:26 43.64963 7.20699 503 ft 167 kts 225°
2026-05-06 16:26 43.64062 7.19483 1096 ft 197 kts 224°
2026-05-06 16:27 43.63011 7.18053 1741 ft 226 kts 226°
2026-05-06 16:27 43.61838 7.16447 2687 ft 245 kts 223°
2026-05-06 16:27 43.60281 7.15407 3837 ft 260 kts 190°
2026-05-06 16:27 43.58457 7.15739 5058 ft 272 kts 163°
2026-05-06 16:28 43.56803 7.17047 6293 ft 282 kts 138°
2026-05-06 16:28 43.55984 7.18458 7043 ft 288 kts 124°
2026-05-06 16:28 43.55115 7.20970 8226 ft 294 kts 111°
2026-05-06 16:28 43.54578 7.23767 9249 ft 302 kts 106°
2026-05-06 16:29 43.54070 7.26550 9643 ft 305 kts 104°
2026-05-06 16:29 43.53818 7.29465 9796 ft 309 kts 92°
2026-05-06 16:29 43.54056 7.32549 9837 ft 336 kts 77°
2026-05-06 16:29 43.54803 7.35638 9839 ft 342 kts 70°
2026-05-06 16:30 43.55629 7.38719 9836 ft 343 kts 70°
2026-05-06 16:30 43.56213 7.40791 9841 ft 344 kts 66°
2026-05-06 16:30 43.57852 7.44499 9838 ft 342 kts 50°
2026-05-06 16:30 43.59354 7.47060 9844 ft 343 kts 50°
2026-05-06 16:31 43.60876 7.49665 10497 ft 351 kts 50°
2026-05-06 16:31 43.62401 7.52296 11589 ft 353 kts 51°
2026-05-06 16:31 43.63945 7.54967 12558 ft 359 kts 51°
2026-05-06 16:31 43.65515 7.57684 13480 ft 365 kts 51°
2026-05-06 16:32 43.67114 7.60447 14301 ft 372 kts 51°
2026-05-06 16:32 43.68749 7.63271 15085 ft 379 kts 51°
2026-05-06 16:32 43.70405 7.66140 15855 ft 385 kts 51°
2026-05-06 16:32 43.72090 7.69062 16617 ft 392 kts 51°
2026-05-06 16:33 43.73805 7.72027 17397 ft 398 kts 51°
2026-05-06 16:33 43.75601 7.74981 18168 ft 404 kts 49°
2026-05-06 16:33 43.77477 7.77922 18851 ft 410 kts 48°
2026-05-06 16:34 43.81359 7.83856 20272 ft 422 kts 48°
2026-05-06 16:34 43.83331 7.86896 20961 ft 427 kts 48°
2026-05-06 16:34 43.85321 7.89998 21631 ft 432 kts 49°
2026-05-06 16:34 43.87321 7.93134 22283 ft 437 kts 49°
2026-05-06 16:35 43.89252 7.96418 22948 ft 442 kts 56°
2026-05-06 16:35 43.90830 8.00022 23565 ft 446 kts 63°
2026-05-06 16:35 43.92356 8.03787 24126 ft 451 kts 63°
2026-05-06 16:35 43.93902 8.07595 24669 ft 455 kts 62°
2026-05-06 16:36 43.95472 8.11454 25203 ft 460 kts 62°
2026-05-06 16:36 43.97054 8.15338 25700 ft 466 kts 62°
2026-05-06 16:36 43.98657 8.19273 26241 ft 470 kts 62°
2026-05-06 16:36 44.00274 8.23247 26768 ft 475 kts 62°
2026-05-06 16:37 44.01903 8.27255 27297 ft 479 kts 62°
2026-05-06 16:37 44.03548 8.31305 27791 ft 484 kts 62°
2026-05-06 16:37 44.05207 8.35401 28295 ft 488 kts 62°
2026-05-06 16:37 44.06877 8.39537 28800 ft 493 kts 62°
2026-05-06 16:38 44.08562 8.43718 29299 ft 498 kts 62°
2026-05-06 16:38 44.10262 8.47939 29806 ft 502 kts 62°
2026-05-06 16:38 44.11973 8.52203 30248 ft 507 kts 62°
2026-05-06 16:38 44.13698 8.56505 30691 ft 511 kts 62°
2026-05-06 16:39 44.15439 8.60845 31130 ft 515 kts 62°
2026-05-06 16:39 44.17188 8.65211 31575 ft 519 kts 62°
2026-05-06 16:39 44.18891 8.69662 32027 ft 521 kts 67°
2026-05-06 16:39 44.20197 8.74357 32627 ft 518 kts 76°
2026-05-06 16:40 44.21058 8.79199 33269 ft 513 kts 83°
2026-05-06 16:40 44.21755 8.84089 33883 ft 513 kts 83°
2026-05-06 16:40 44.22448 8.88954 34443 ft 512 kts 83°
2026-05-06 16:40 44.23137 8.93809 35058 ft 509 kts 82°
2026-05-06 16:41 44.23819 8.98649 35696 ft 506 kts 82°
2026-05-06 16:41 44.24485 9.03387 36335 ft 502 kts 82°
2026-05-06 16:41 44.25151 9.08153 36968 ft 499 kts 82°
2026-05-06 16:41 44.25790 9.12738 37568 ft 496 kts 81°
2026-05-06 16:42 44.26435 9.17406 37825 ft 494 kts 81°
2026-05-06 16:42 44.27726 9.26758 37881 ft 488 kts 81°
2026-05-06 16:43 44.29003 9.36050 37882 ft 487 kts 81°
2026-05-06 16:43 44.30266 9.45346 37890 ft 486 kts 81°
2026-05-06 16:44 44.31442 9.54634 37884 ft 484 kts 87°
2026-05-06 16:44 44.31165 9.63908 37894 ft 475 kts 105°
2026-05-06 16:45 44.29446 9.72773 37903 ft 472 kts 110°
2026-05-06 16:45 44.27663 9.81545 37899 ft 473 kts 110°
2026-05-06 16:46 44.25864 9.90372 37899 ft 473 kts 110°
2026-05-06 16:46 44.24051 9.99185 37903 ft 473 kts 110°
2026-05-06 16:47 44.22223 10.08016 37901 ft 473 kts 111°
2026-05-06 16:47 44.20387 10.16828 37903 ft 474 kts 110°
2026-05-06 16:48 44.18549 10.25644 37903 ft 474 kts 110°
2026-05-06 16:48 44.16707 10.34458 37898 ft 474 kts 110°
2026-05-06 16:49 44.14861 10.43309 38159 ft 478 kts 110°
2026-05-06 16:49 44.13937 10.47745 38626 ft 477 kts 110°
2026-05-06 16:49 44.13012 10.52184 38866 ft 478 kts 110°
2026-05-06 16:50 44.11764 10.61305 38930 ft 484 kts 94°
2026-05-06 16:50 44.12093 10.70635 38930 ft 486 kts 88°
2026-05-06 16:51 44.12528 10.79999 38931 ft 483 kts 88°
2026-05-06 16:51 44.12936 10.89338 38518 ft 483 kts 89°
2026-05-06 16:51 44.13146 10.94009 38007 ft 481 kts 88°
2026-05-06 16:52 44.13355 10.98643 37883 ft 479 kts 88°
2026-05-06 16:52 44.13766 11.07980 37916 ft 485 kts 88°
2026-05-06 16:53 44.14171 11.17374 37920 ft 487 kts 88°
2026-05-06 16:53 44.14573 11.26785 37918 ft 487 kts 88°
2026-05-06 16:54 44.14960 11.36122 37914 ft 487 kts 88°
2026-05-06 16:54 44.15351 11.45549 37906 ft 487 kts 88°
2026-05-06 16:55 44.15738 11.54956 37908 ft 487 kts 88°
2026-05-06 16:55 44.16108 11.64371 37902 ft 487 kts 88°
2026-05-06 16:56 44.16458 11.73783 37912 ft 487 kts 88°
2026-05-06 16:56 44.16807 11.83212 37914 ft 487 kts 88°
2026-05-06 16:57 44.17148 11.92630 37921 ft 487 kts 88°
2026-05-06 16:57 44.17493 12.02056 37926 ft 486 kts 88°
2026-05-06 16:58 44.17824 12.11463 37927 ft 486 kts 88°
2026-05-06 16:58 44.18150 12.20891 37926 ft 486 kts 88°
2026-05-06 16:59 44.18470 12.30300 37927 ft 486 kts 88°
2026-05-06 16:59 44.18778 12.39710 37919 ft 486 kts 88°
2026-05-06 17:00 44.19069 12.49118 37912 ft 486 kts 88°
2026-05-06 17:00 44.19359 12.58462 37897 ft 486 kts 88°
2026-05-06 17:01 44.19650 12.67876 37901 ft 486 kts 88°
2026-05-06 17:01 44.19929 12.77284 37889 ft 485 kts 88°
2026-05-06 17:02 44.20191 12.86685 37899 ft 485 kts 88°
2026-05-06 17:02 44.20448 12.96078 37917 ft 484 kts 88°
2026-05-06 17:03 44.20701 13.05451 37921 ft 484 kts 88°
2026-05-06 17:03 44.20945 13.14812 37927 ft 483 kts 88°
2026-05-06 17:04 44.21187 13.24160 37931 ft 482 kts 88°
2026-05-06 17:04 44.21417 13.33498 37932 ft 481 kts 88°
2026-05-06 17:05 44.21630 13.42816 37939 ft 480 kts 89°
2026-05-06 17:05 44.21837 13.52117 37939 ft 480 kts 88°
2026-05-06 17:06 44.22044 13.61402 37940 ft 479 kts 89°
2026-05-06 17:06 44.22386 13.70671 37946 ft 478 kts 82°
2026-05-06 17:07 44.23246 13.79809 37943 ft 478 kts 82°
2026-05-06 17:07 44.24095 13.89005 37946 ft 478 kts 83°
2026-05-06 17:08 44.24925 13.98199 37944 ft 478 kts 83°
2026-05-06 17:08 44.25749 14.07389 37945 ft 478 kts 83°
2026-05-06 17:09 44.26575 14.16587 37946 ft 477 kts 83°
2026-05-06 17:09 44.27390 14.25773 37951 ft 477 kts 83°
2026-05-06 17:10 44.28196 14.34981 37954 ft 477 kts 83°
2026-05-06 17:10 44.28996 14.44158 37954 ft 476 kts 83°
2026-05-06 17:11 44.29787 14.53333 37960 ft 476 kts 83°
2026-05-06 17:11 44.30182 14.57921 38234 ft 476 kts 83°
2026-05-06 17:11 44.30571 14.62504 38727 ft 475 kts 83°
2026-05-06 17:11 44.30958 14.67095 38907 ft 475 kts 83°
2026-05-06 17:12 44.31342 14.71669 38956 ft 474 kts 83°
2026-05-06 17:12 44.32100 14.80798 38961 ft 473 kts 83°
2026-05-06 17:13 44.32727 14.88380 38964 ft 472 kts 84°
2026-05-06 17:13 44.33593 14.98978 38974 ft 472 kts 84°
2026-05-06 17:14 44.34331 15.08082 38986 ft 471 kts 84°
2026-05-06 17:14 44.34947 15.15703 38989 ft 471 kts 84°
2026-05-06 17:15 44.35676 15.24812 38999 ft 472 kts 84°
2026-05-06 17:15 44.36399 15.33927 39004 ft 472 kts 84°
2026-05-06 17:16 44.37107 15.43051 39001 ft 472 kts 84°
2026-05-06 17:16 44.37799 15.52116 39004 ft 472 kts 84°
2026-05-06 17:17 44.38491 15.61242 38996 ft 472 kts 84°
2026-05-06 17:17 44.39189 15.70376 38998 ft 473 kts 84°
2026-05-06 17:18 44.39878 15.79512 38999 ft 473 kts 84°
2026-05-06 17:18 44.40557 15.88673 39002 ft 473 kts 84°
2026-05-06 17:19 44.41218 15.97799 38998 ft 472 kts 84°
2026-05-06 17:19 44.41885 16.06958 38998 ft 472 kts 84°
2026-05-06 17:20 44.42543 16.16097 38996 ft 472 kts 84°
2026-05-06 17:20 44.43188 16.25245 38995 ft 472 kts 84°
2026-05-06 17:21 44.43826 16.34393 38993 ft 473 kts 84°
2026-05-06 17:21 44.44452 16.43497 38990 ft 473 kts 84°
2026-05-06 17:22 44.45080 16.52677 38980 ft 474 kts 84°
2026-05-06 17:22 44.45703 16.61854 38979 ft 474 kts 84°
2026-05-06 17:23 44.46316 16.71057 38977 ft 475 kts 84°
2026-05-06 17:23 44.46917 16.80263 38979 ft 475 kts 84°
2026-05-06 17:24 44.47516 16.89471 38977 ft 475 kts 84°
2026-05-06 17:24 44.48108 16.98680 38973 ft 475 kts 84°
2026-05-06 17:25 44.48698 17.07912 38967 ft 475 kts 84°
2026-05-06 17:25 44.49279 17.17137 38971 ft 475 kts 84°
2026-05-06 17:26 44.49848 17.26358 38964 ft 475 kts 85°
2026-05-06 17:26 44.50414 17.35589 38961 ft 475 kts 85°
2026-05-06 17:27 44.50966 17.44765 38949 ft 475 kts 85°
2026-05-06 17:27 44.51510 17.53980 38951 ft 475 kts 85°
2026-05-06 17:28 44.52049 17.63210 38952 ft 475 kts 85°
2026-05-06 17:28 44.52582 17.72425 38948 ft 475 kts 85°
2026-05-06 17:29 44.53106 17.81657 38952 ft 475 kts 85°
2026-05-06 17:29 44.53622 17.90875 38943 ft 475 kts 85°
2026-05-06 17:30 44.54128 18.00109 38947 ft 475 kts 85°
2026-05-06 17:30 44.54632 18.09332 38948 ft 474 kts 85°
2026-05-06 17:31 44.55126 18.18541 38949 ft 474 kts 85°
2026-05-06 17:31 44.55613 18.27761 38944 ft 474 kts 85°
2026-05-06 17:32 44.56094 18.36965 38940 ft 473 kts 85°
2026-05-06 17:32 44.56569 18.46163 38942 ft 473 kts 86°
2026-05-06 17:33 44.57020 18.55297 38939 ft 473 kts 86°
2026-05-06 17:33 44.57472 18.64484 38940 ft 472 kts 86°
2026-05-06 17:34 44.57922 18.73668 38941 ft 472 kts 86°
2026-05-06 17:34 44.58363 18.82842 38942 ft 471 kts 86°
2026-05-06 17:35 44.58790 18.91994 38943 ft 470 kts 86°
2026-05-06 17:35 44.59218 19.01147 38942 ft 469 kts 86°
2026-05-06 17:36 44.59889 19.14839 38938 ft 468 kts 84°
2026-05-06 17:36 44.60633 19.23907 38915 ft 468 kts 84°
2026-05-06 17:37 44.61476 19.32982 38922 ft 468 kts 84°
2026-05-06 17:37 44.62252 19.42044 38923 ft 468 kts 85°
2026-05-06 17:38 44.62962 19.51124 38933 ft 467 kts 85°
2026-05-06 17:38 44.63658 19.60182 38921 ft 467 kts 85°
2026-05-06 17:39 44.64363 19.69233 38930 ft 466 kts 85°
2026-05-06 17:39 44.65068 19.78277 38919 ft 466 kts 85°
2026-05-06 17:40 44.65760 19.87311 38919 ft 465 kts 85°
2026-05-06 17:40 44.66436 19.96347 38929 ft 465 kts 85°
2026-05-06 17:41 44.67110 20.05390 38927 ft 465 kts 85°
2026-05-06 17:41 44.67785 20.14432 38932 ft 465 kts 85°
2026-05-06 17:42 44.68451 20.23414 38931 ft 465 kts 85°
2026-05-06 17:42 44.69111 20.32509 38935 ft 465 kts 85°
2026-05-06 17:43 44.69752 20.41492 38934 ft 465 kts 85°
2026-05-06 17:43 44.70389 20.50532 38936 ft 465 kts 85°
2026-05-06 17:44 44.71018 20.59572 38936 ft 464 kts 84°
2026-05-06 17:44 44.71648 20.68596 38934 ft 464 kts 84°
2026-05-06 17:45 44.72268 20.77640 38939 ft 464 kts 84°
2026-05-06 17:45 44.72882 20.86664 38937 ft 463 kts 84°
2026-05-06 17:46 44.73484 20.95684 38936 ft 463 kts 84°
2026-05-06 17:46 44.74080 21.04703 38939 ft 463 kts 84°
2026-05-06 17:47 44.74671 21.13729 38937 ft 463 kts 84°
2026-05-06 17:47 44.75250 21.22751 38945 ft 463 kts 84°
2026-05-06 17:48 44.75825 21.31785 38942 ft 463 kts 84°
2026-05-06 17:48 44.76402 21.40807 38950 ft 463 kts 84°
2026-05-06 17:49 44.76894 21.48781 38952 ft 464 kts 84°
2026-05-06 17:49 44.77336 21.57824 38956 ft 464 kts 88°
2026-05-06 17:50 44.77435 21.66533 38961 ft 464 kts 90°
2026-05-06 17:50 44.77412 21.75260 38963 ft 464 kts 90°
2026-05-06 17:51 44.77433 21.84336 38964 ft 464 kts 89°
2026-05-06 17:51 44.77511 21.93052 38969 ft 464 kts 89°
2026-05-06 17:52 44.77595 22.01747 38957 ft 464 kts 89°
2026-05-06 17:52 44.77641 22.10844 38979 ft 464 kts 90°
2026-05-06 17:53 44.77323 22.19922 38978 ft 465 kts 94°
2026-05-06 17:53 44.76802 22.28643 38980 ft 465 kts 94°
2026-05-06 17:54 44.76309 22.37368 38978 ft 465 kts 94°
2026-05-06 17:54 44.75890 22.46091 38984 ft 466 kts 93°
2026-05-06 17:55 44.75473 22.55180 38982 ft 466 kts 93°
2026-05-06 17:55 44.75046 22.63969 38984 ft 467 kts 93°
2026-05-06 17:56 44.74598 22.72695 38980 ft 467 kts 93°
2026-05-06 17:56 44.74139 22.81412 38981 ft 467 kts 93°
2026-05-06 17:57 44.73668 22.90505 38982 ft 467 kts 93°
2026-05-06 17:57 44.73209 22.99323 38878 ft 468 kts 93°
2026-05-06 17:58 44.72985 23.03515 38668 ft 467 kts 93°
2026-05-06 17:58 44.72741 23.08067 38389 ft 467 kts 93°
2026-05-06 17:58 44.72498 23.12606 38088 ft 464 kts 93°
2026-05-06 17:58 44.72271 23.16788 37493 ft 465 kts 93°
2026-05-06 17:59 44.72018 23.21323 36816 ft 466 kts 93°
2026-05-06 17:59 44.71781 23.25549 36182 ft 467 kts 92°
2026-05-06 17:59 44.71614 23.28526 35738 ft 467 kts 92°
2026-05-06 17:59 44.71356 23.33086 35058 ft 468 kts 92°
2026-05-06 18:00 44.71118 23.37288 34479 ft 467 kts 92°
2026-05-06 18:00 44.70861 23.41828 33999 ft 463 kts 92°
2026-05-06 18:00 44.70604 23.46305 33448 ft 459 kts 92°
2026-05-06 18:00 44.70345 23.50760 32898 ft 454 kts 92°
2026-05-06 18:01 44.70109 23.54816 32398 ft 451 kts 92°
2026-05-06 18:01 44.69852 23.59187 31853 ft 447 kts 92°
2026-05-06 18:01 44.69594 23.63521 31304 ft 443 kts 92°
2026-05-06 18:01 44.69357 23.67508 30816 ft 439 kts 92°
2026-05-06 18:02 44.69104 23.71770 30307 ft 435 kts 92°
2026-05-06 18:02 44.68877 23.75600 29814 ft 432 kts 92°
2026-05-06 18:02 44.68630 23.79790 29248 ft 428 kts 92°
2026-05-06 18:02 44.68386 23.83941 28702 ft 424 kts 92°
2026-05-06 18:03 44.68153 23.87780 28205 ft 420 kts 93°
2026-05-06 18:03 44.67901 23.91849 27694 ft 416 kts 93°
2026-05-06 18:03 44.67669 23.95565 27235 ft 413 kts 93°
2026-05-06 18:03 44.67419 23.99554 26752 ft 409 kts 93°
2026-05-06 18:04 44.67169 24.03531 26293 ft 406 kts 93°
2026-05-06 18:04 44.66941 24.07146 25874 ft 402 kts 93°
2026-05-06 18:04 44.66696 24.11048 25425 ft 399 kts 94°
2026-05-06 18:04 44.66472 24.14614 24991 ft 396 kts 94°
2026-05-06 18:05 44.66230 24.18459 24532 ft 393 kts 94°
2026-05-06 18:05 44.65988 24.22263 24081 ft 390 kts 94°
2026-05-06 18:05 44.65763 24.25780 23663 ft 386 kts 94°
2026-05-06 18:05 44.65521 24.29521 23153 ft 383 kts 94°
2026-05-06 18:06 44.65302 24.32897 22684 ft 380 kts 94°
2026-05-06 18:06 44.65063 24.36569 22170 ft 376 kts 94°
2026-05-06 18:06 44.64824 24.40209 21657 ft 372 kts 95°
2026-05-06 18:06 44.64584 24.43812 21161 ft 368 kts 95°
2026-05-06 18:07 44.64345 24.47375 20659 ft 365 kts 95°
2026-05-06 18:07 44.64108 24.50908 20193 ft 361 kts 95°
2026-05-06 18:07 44.63875 24.54418 19469 ft 364 kts 95°
2026-05-06 18:07 44.63633 24.58020 18465 ft 377 kts 95°
2026-05-06 18:08 44.63387 24.61654 17650 ft 379 kts 95°
2026-05-06 18:08 44.63139 24.65324 16845 ft 377 kts 95°
2026-05-06 18:08 44.62889 24.69011 15956 ft 380 kts 96°
2026-05-06 18:08 44.62660 24.72375 15286 ft 378 kts 96°
2026-05-06 18:09 44.62407 24.76032 14610 ft 374 kts 96°
2026-05-06 18:09 44.62156 24.79647 13961 ft 371 kts 96°
2026-05-06 18:09 44.61929 24.82925 13311 ft 367 kts 96°
2026-05-06 18:09 44.61683 24.86484 12595 ft 364 kts 96°
2026-05-06 18:10 44.61456 24.89746 11772 ft 365 kts 96°
2026-05-06 18:10 44.61198 24.93392 11208 ft 389 kts 96°
2026-05-06 18:10 44.60927 24.97189 11014 ft 392 kts 96°
2026-05-06 18:10 44.60657 25.00993 10982 ft 392 kts 96°
2026-05-06 18:11 44.60386 25.04804 10994 ft 392 kts 96°
2026-05-06 18:11 44.60132 25.08343 10999 ft 392 kts 96°
2026-05-06 18:11 44.59857 25.12149 10998 ft 392 kts 96°
2026-05-06 18:11 44.59582 25.15952 10999 ft 392 kts 96°
2026-05-06 18:12 44.59306 25.19765 10997 ft 392 kts 96°
2026-05-06 18:12 44.59033 25.23528 10479 ft 384 kts 96°
2026-05-06 18:12 44.58762 25.27243 9535 ft 381 kts 96°
2026-05-06 18:12 44.58492 25.30914 8632 ft 376 kts 96°
2026-05-06 18:13 44.58224 25.34547 7745 ft 372 kts 96°
2026-05-06 18:13 44.57958 25.38127 6889 ft 367 kts 96°
2026-05-06 18:13 44.57693 25.41672 6031 ft 363 kts 96°
2026-05-06 18:13 44.57449 25.44899 5269 ft 358 kts 96°
2026-05-06 18:14 44.57184 25.48354 4488 ft 353 kts 96°
2026-05-06 18:14 44.56927 25.51746 4112 ft 350 kts 96°
2026-05-06 18:14 44.56670 25.55142 4020 ft 350 kts 96°
2026-05-06 18:14 44.56414 25.58549 4042 ft 351 kts 96°
2026-05-06 18:15 44.56155 25.61958 4044 ft 352 kts 96°
2026-05-06 18:15 44.55895 25.65367 4044 ft 352 kts 96°
2026-05-06 18:15 44.55633 25.68777 4049 ft 352 kts 96°
2026-05-06 18:15 44.55368 25.72194 4047 ft 352 kts 96°
2026-05-06 18:16 44.55110 25.75491 4046 ft 327 kts 97°
2026-05-06 18:16 44.54875 25.78552 4006 ft 305 kts 96°
2026-05-06 18:16 44.54661 25.81372 3871 ft 276 kts 96°
2026-05-06 18:16 44.54496 25.83729 3760 ft 252 kts 94°
2026-05-06 18:17 44.54550 25.86162 2979 ft 255 kts 86°
2026-05-06 18:17 44.54740 25.88582 2305 ft 256 kts 84°
2026-05-06 18:17 44.55001 25.90814 2253 ft 231 kts 80°
2026-05-06 18:17 44.55290 25.92901 2143 ft 209 kts 83°
2026-05-06 18:18 44.55459 25.94653 1966 ft 185 kts 86°
2026-05-06 18:18 44.55596 25.96339 1782 ft 162 kts 87°
2026-05-06 18:18 44.55706 25.97749 1613 ft 141 kts 87°
2026-05-06 18:18 44.55801 25.98981 1450 ft 125 kts 87°
2026-05-06 18:19 44.55891 26.00159 1302 ft 119 kts 87°
2026-05-06 18:19 44.55971 26.01207 1172 ft 118 kts 86°
2026-05-06 18:19 44.56058 26.02350 1036 ft 117 kts 85°
2026-05-06 18:19 44.56145 26.03490 896 ft 118 kts 84°
2026-05-06 18:20 44.56231 26.04606 750 ft 117 kts 84°
2026-05-06 18:20 44.56311 26.05655 625 ft 118 kts 85°
2026-05-06 18:20 44.56402 26.06789 466 ft 116 kts 83°
2026-05-06 18:20 44.56494 26.07824 336 ft 116 kts 84°
2026-05-06 18:21 44.56550 26.08790 322 ft 84 kts 85°
2026-05-06 18:21 44.56594 26.09392 322 ft 37 kts 84°
2026-05-06 18:21 44.56617 26.09614 323 ft 25 kts 81°
2026-05-06 18:21 44.56644 26.10024 324 ft 62 kts 85°
2026-05-06 18:22 44.56683 26.10589 323 ft 62 kts 85°
2026-05-06 18:22 44.56742 26.10809 322 ft 2 kts 349°
2026-05-06 18:22 44.56775 26.10788 322 ft 8 kts 336°
2026-05-06 18:22 44.56842 26.10753 323 ft 13 kts 345°
2026-05-06 18:23 44.56946 26.10735 323 ft 18 kts 353°
2026-05-06 18:23 44.57044 26.10617 323 ft 21 kts 306°
2026-05-06 18:23 44.57063 26.10463 321 ft 0 kts 249°
2026-05-06 18:24 44.57061 26.10458 322 ft 3 kts 249°
2026-05-06 18:24 44.57055 26.10418 323 ft 7 kts 262°
2026-05-06 18:25 44.57049 26.10327 322 ft 12 kts 265°
2026-05-06 18:25 44.57045 26.10194 323 ft 17 kts 268°
2026-05-06 18:25 44.57027 26.10023 323 ft 21 kts 265°
2026-05-06 18:25 44.57014 26.09792 323 ft 27 kts 265°
2026-05-06 18:26 44.56989 26.09508 321 ft 32 kts 262°
2026-05-06 18:26 44.56966 26.09201 323 ft 28 kts 264°
2026-05-06 18:26 44.56949 26.08986 323 ft 17 kts 264°
2026-05-06 18:26 44.56943 26.08903 323 ft 9 kts 264°
2026-05-06 18:27 44.56933 26.08790 321 ft 14 kts 256°
2026-05-06 18:27 44.56891 26.08747 323 ft 1 kts 173°
2026-05-06 18:27 44.56880 26.08748 323 ft 0 kts 173°